EHI
0 0 0 0 0 0 0 0 0 0 0 0 0 0 0 0 0 0 0 0 0 0 0 0 0 0 0 0 0 0 0 0 0 0 0 0 0 0 0 0 0 0 0
0 0 0 0 0 0 0 0 0 0 0 0 0 0 0 0 0 0 0 0 0 0 0 0 0 0 0 0 0 0 0 0 0 0 0 0 0 0 0 0 0 0 0
0 0 0 0 0 0 0 0 0 0 0 0 0 0 0 0 0 0 0 0 0 0 0 0 0 0 0 0 0 0 0 0 0 0 0 0 0 0 0 0 0 0 0
0 0 0 0 0 0 0 0 0 0 0 0 0 0 0 0 0 0 0 0 0 0 0 0 0 0 0 0 0 0 0 0 0 0 0 0 0 0 0 0 0 0 0
0 0 0 0 0 0 0 0 0 0 0 0 0 0 0 0 0 0 0 0 0 0 0 0 0 0 0 0 0 0 0 0 0 0 0 0 0 0 0 0 0 0 0
0 0 0 0 0 0 0 0 0 0 0 0 0 0 0 0 0 0 0 0 0 0 0 0 0 0 0 0 0 0 0 0 0 0 0 0 0 0 0 0 0 0 0
0 0 0 0 0 0 0 0 0 0 0 0 0 0 0 0 0 0 0 0 0 0 0 0 0 0 0 0 0 0 0 0 0 0 0 0 0 0 0 0 0 0 0
0 0 0 0 0 0 0 0 0 0 0 0 0 0 0 0 0 0 0 0 0 0 0 0 0 0 0 0 0 0 0 0 0 0 0 0 0 0 0 0 0 0 0
0 0 0 0 0 0 0 0 0 0 0 0 0 0 0 0 0 0 0 0 0 0 0 0 0 0 0 0 0 0 0 0 0 0 0 0 0 0 0 0 0 0 0
0 0 0 0 0 0 0 0 0 0 0 0 0 0 0 0 0 0 0 0 0 0 0 0 0 0 0 0 0 0 0 0 0 0 0 0 0 0 0 0 0 0 0
0 0 0 0 0 0 0 0 0 0 0 0 0 0 0 0 0 0 0 0 0 0 0 0 0 0 0 0 0 0 0 0 0 0 0 0 0 0 0 0 0 0 0
0 0 0 0 0 0 0 0 0 0 0 0 0 0 0 0 0 0 0 0 0 0 0 0 0 0 0 0 0 0 0 0 0 0 0 0 0 0 0 0 0 0 0
0 0 0 0 0 0 0 0 0 0 0 0 0 0 0 0 0 0 0 0 0 0 0 0 0 0 0 0 0 0 0 0 0 0 0 0 0 0 0 0 0 0 0
0 0 0 0 0 0 0 0 0 0 0 0 0 0 0 0 0 0 0 0 0 0 0 0 0 0 0 0 0 0 0 0 0 0 0 0 0 0 0 0 0 0 0
0 0 0 0 0 0 0 0 0 0 0 0 0 0 0 0 0 0 0 0 0 0 0 0 0 0 0 0 0 0 0 0 0 0 0 0 0 0 0 0 0 0 0
0 0 0 0 0 0 0 0 0 0 0 0 0 0 0 0 0 0 0 0 0 0 0 0 0 0 0 0 0 0 0 0 0 0 0 0 0 0 0 0 0 0 0
0 0 0 0 0 0 0 0 0 0 0 0 0 0 0 0 0 0 0 0 0 0 0 0 0 0 0 0 0 0 0 0 0 0 0 0 0 0 0 0 0 0 0
0 0 0 0 0 0 0 0 0 0 0 0 0 0 0 0 0 0 0 0 0 0 0 0 0 0 0 0 0 0 0 0 0 0 0 0 0 0 0 0 0 0 0
0 0 0 0 0 0 0 0 0 0 0 0 0 0 0 0 0 0 0 0 0 0 0 0 0 0 0 0 0 0 0 0 0 0 0 0 0 0 0 0 0 0 0
0 0 0 0 0 0 0 0 0 0 0 0 0 0 0 0 0 0 0 0 0 0 0 0 0 0 0 0 0 0 0 0 0 0 0 0 0 0 0 0 0 0 0
0 0 0 0 0 0 0 0 0 0 0 0 0 0 0 0 0 0 0 0 0 0 0 0 0 0 0 0 0 0 0 0 0 0 0 0 0 0 0 0 0 0 0
0 0 0 0 0 0 0 0 0 0 0 0 0 0 0 0 0 0 0 0 0 0 0 0 0 0 0 0 0 0 0 0 0 0 0 0 0 0 0 0 0 0 0
0 0 0 0 0 0 0 0 0 0 0 0 0 0 0 0 0 0 0 0 0 0 0 0 0 0 0 0 0 0 0 0 0 0 0 0 0 0 0 0 0 0 0
0 0 0 0 0 0 0 0 0 0 0 0 0 0 0 0 0 0 0 0 0 0 0 0 0 0 0 0 0 0 0 0 0 0 0 0 0 0 0 0 0 0 0
0 0 0 0 0 0 0 0 0 0 0 0 0 0 0 0 0 0 0 0 0 0 0 0 0 0 0 0 0 0 0 0 0 0 0 0 0 0 0 0 0 0 0
0 0 0 0 0 0 0 0 0 0 0 0 0 0 0 0 0 0 0 0 0 0 0 0 0 0 0 0 0 0 0 0 0 0 0 0 0 0 0 0 0 0 0
Wind_Speed
7 6 5 5 5 4 4 3 3 3 2 2 2 1 2 2 2 2 3 6 6 6 7 7 7 8 9 9 10 10 10 11 11 11 11 12 12 12 12 13 13 13 14
7 7 6 5 5 4 4 3 3 2 2 1 1 1 1 1 2 2 2 5 7 7 7 7 7 8 8 9 9 10 10 10 10 11 11 11 12 12 13 13 13 13 14
9 8 6 6 5 5 5 4 3 2 1 1 1 1 1 1 1 2 2 2 4 7 7 7 7 8 8 9 9 9 10 10 10 10 11 11 11 12 13 13 13 14 14
11 8 7 6 6 5 5 4 3 3 2 1 1 1 1 1 1 2 2 2 2 2 5 7 7 8 8 9 9 9 9 10 10 10 11 11 12 12 13 13 14 14 14
12 9 7 7 7 6 5 4 4 3 2 2 1 1 1 1 1 2 2 2 2 1 2 4 5 7 8 8 9 9 9 10 10 10 11 12 12 13 14 14 14 14 15
13 11 8 9 8 6 6 6 5 3 2 2 2 1 1 1 2 2 2 2 2 2 1 1 1 3 5 7 8 9 9 10 10 11 11 12 13 14 14 15 15 15 16
14 12 8 9 9 8 8 7 5 5 3 3 2 2 2 3 3 2 2 3 3 2 1 1 1 2 1 3 5 8 9 11 11 11 12 13 14 14 15 15 16 16 16
14 11 12 10 10 8 9 8 7 5 3 4 3 2 3 4 4 3 3 3 3 3 2 2 2 2 3 2 3 6 9 11 12 13 13 14 15 15 16 16 17 17 17
15 14 14 12 11 10 9 9 9 8 5 4 4 3 3 2 2 4 5 4 4 4 3 3 3 3 3 2 3 3 8 11 12 13 14 15 16 16 17 17 18 18 18
16 15 14 14 12 10 10 10 9 7 6 5 4 3 3 2 2 2 4 5 5 5 5 3 4 3 3 2 2 4 7 10 12 13 15 16 17 17 18 18 19 19 19
16 15 15 14 12 10 11 11 10 9 7 6 5 4 4 3 4 4 3 3 4 4 4 4 4 3 3 3 3 4 7 10 12 14 15 16 18 18 19 19 19 20 20
12 16 15 14 13 11 12 11 10 11 8 8 6 5 4 4 4 4 5 4 4 3 4 4 4 4 3 4 4 5 8 10 12 14 15 17 18 19 19 20 20 21 21
12 16 15 14 13 12 11 11 10 10 10 9 8 6 5 5 3 3 4 4 4 3 4 4 4 4 4 4 4 5 9 11 13 14 16 17 18 19 20 20 21 22 22
13 15 16 15 14 13 12 11 9 9 9 9 8 7 5 4 4 4 3 3 4 4 5 5 3 5 4 5 4 7 8 11 13 15 16 17 18 19 20 20 21 21 22
11 15 15 15 14 13 12 12 8 10 9 8 8 8 6 4 4 4 4 4 3 4 5 4 3 4 4 5 5 7 9 11 14 16 17 18 18 19 20 20 21 21 22
13 14 14 14 13 13 12 11 9 9 9 8 6 8 7 5 4 4 4 4 5 5 5 4 4 4 5 6 8 9 9 13 15 16 17 18 18 19 20 20 21 21 21
13 14 14 14 14 13 13 12 10 10 11 9 8 8 8 7 5 5 4 4 5 5 7 6 5 5 7 8 7 8 8 9 9 14 16 18 18 19 20 20 20 21 21
13 13 13 13 13 13 13 13 12 11 11 10 10 9 8 6 7 6 5 6 5 6 6 8 6 6 8 8 9 9 8 8 9 13 16 17 18 19 20 20 20 20 20
12 12 12 13 12 12 12 12 12 11 11 10 10 10 9 8 8 6 6 5 5 5 5 6 7 5 6 6 8 9 10 9 9 10 14 15 17 19 20 20 19 19 19
12 12 12 12 11 11 11 11 10 10 10 9 9 8 8 9 8 7 6 6 5 5 5 6 6 6 6 7 7 7 8 8 8 9 10 12 15 18 18 18 18 18 18
11 11 11 11 10 9 9 10 9 9 9 8 7 7 7 7 7 6 5 5 5 4 4 5 6 6 6 6 6 7 8 9 9 8 8 9 10 10 11 13 14 16 18
11 11 11 11 10 8 10 13 11 9 8 8 8 7 6 7 8 9 8 7 7 6 5 5 6 7 8 8 7 7 8 9 8 6 8 10 10 10 9 9 13 17 18
11 11 11 10 10 10 13 14 12 8 8 8 7 7 5 5 7 6 8 9 9 9 8 6 7 8 8 7 8 9 8 9 10 9 9 10 10 10 9 9 15 16 16
11 10 10 10 9 9 13 14 13 8 7 7 6 6 6 6 5 5 5 5 6 6 7 6 7 8 8 8 7 8 9 9 10 9 8 9 9 9 10 9 12 13 15
10 9 9 9 9 9 12 13 12 7 5 6 5 5 5 5 6 6 5 5 5 5 5 8 9 9 10 10 9 6 6 7 9 8 6 6 8 10 10 8 8 12 15
9 8 8 8 8 8 12 13 12 6 6 5 4 4 5 5 6 7 5 5 5 5 4 5 6 7 7 7 8 7 6 7 8 7 5 6 8 8 8 6 7 9 10
Wind_Direction
179 176 177 173 175 167 171 173 169 146 136 110 83 63 65 59 58 68 87 58 42 44 45 41 37 34 31 29 24 19 14 11 7 4 3 1 358 356 353 350 349 347 345
183 183 180 181 179 178 176 180 169 163 146 134 104 81 68 73 77 94 91 93 66 52 45 39 34 29 26 24 19 14 8 4 1 360 358 357 355 351 348 346 345 344 342
187 187 186 184 182 179 179 181 168 173 148 158 148 103 87 68 100 113 108 98 97 73 54 42 34 29 22 17 13 10 6 0 357 355 354 352 349 347 343 342 342 340 338
193 191 190 189 182 180 185 185 186 183 179 188 161 131 140 130 136 114 130 125 103 95 79 52 36 28 19 12 7 4 360 357 354 352 351 348 345 342 340 339 338 337 335
196 196 195 189 184 188 190 187 195 198 185 175 151 141 155 161 150 169 152 136 118 106 84 76 52 32 16 7 2 357 353 352 350 348 346 343 339 337 335 334 333 332 330
197 198 196 193 187 190 193 193 186 185 181 164 153 164 170 181 191 184 172 163 155 148 109 41 28 52 24 6 360 351 347 345 344 342 340 336 334 332 330 329 328 327 326
197 199 196 194 192 197 197 194 183 179 177 174 190 189 179 188 196 189 197 196 178 180 209 295 336 334 358 7 1 350 345 341 338 335 333 330 328 327 325 324 323 322 321
200 199 200 196 195 199 198 192 188 190 173 194 220 224 208 188 193 201 204 213 213 206 227 256 294 311 319 323 8 348 342 336 332 330 329 327 325 323 321 321 321 319 318
201 200 203 202 198 198 197 195 193 195 188 188 222 240 247 241 170 183 204 215 220 230 235 244 264 281 300 306 312 344 338 331 327 326 325 324 322 320 319 319 317 316 316
203 202 202 204 200 201 201 197 197 200 194 187 191 232 265 300 252 215 192 208 224 239 244 244 251 255 266 280 298 320 327 324 323 323 323 321 319 318 316 316 316 315 314
203 202 202 202 201 202 203 196 193 198 201 199 186 182 200 221 245 254 246 216 221 229 241 253 252 247 247 264 278 314 316 315 317 319 319 318 316 315 314 314 313 313 311
199 202 202 202 201 201 201 197 193 198 202 201 195 189 191 199 209 222 248 253 253 240 244 248 247 238 245 260 271 297 300 305 309 312 314 314 314 313 312 311 310 309 308
196 199 197 200 201 201 197 193 192 197 200 199 199 200 208 218 213 221 244 259 263 261 248 239 233 236 244 256 264 284 286 296 302 306 309 310 310 309 308 308 307 306 305
197 196 196 199 200 197 193 191 192 194 196 199 203 200 201 203 201 210 225 239 259 255 245 247 224 236 244 256 279 282 283 289 298 302 304 305 306 305 305 305 305 304 304
195 194 194 197 197 194 191 188 194 191 192 197 197 197 198 194 199 208 214 221 239 265 269 258 247 236 249 263 275 280 286 292 296 297 299 302 303 303 303 304 304 303 303
192 191 191 194 193 191 190 189 191 189 189 191 188 193 196 194 193 196 206 219 232 250 269 273 266 265 268 273 279 283 287 293 287 290 295 298 300 302 303 304 303 302 302
190 190 189 191 190 189 188 189 189 184 191 189 188 196 198 192 192 196 202 213 225 236 258 272 271 275 276 278 281 284 288 289 289 291 295 298 300 301 303 303 302 303 303
189 188 186 188 189 188 188 190 188 187 190 191 191 195 197 191 200 200 205 216 225 233 253 274 279 281 280 285 288 290 290 289 289 294 296 297 298 300 302 303 303 304 304
185 184 183 186 186 186 188 192 190 189 193 194 192 195 195 193 204 205 211 220 229 238 249 266 281 286 285 286 291 289 289 289 291 293 294 293 297 301 301 302 304 305 306
180 179 180 183 184 183 185 187 188 188 190 192 193 195 195 197 206 207 212 222 227 237 249 261 275 283 286 292 293 294 296 295 297 297 293 296 298 299 298 300 303 306 307
175 174 174 176 178 178 182 181 181 183 185 186 187 193 196 199 207 207 211 217 218 233 246 259 271 281 284 291 291 295 296 302 301 298 301 301 302 300 301 301 303 307 307
167 167 172 173 175 177 175 178 178 180 183 185 186 191 194 198 205 213 221 225 226 235 245 257 268 274 283 291 296 296 298 302 303 306 305 303 303 299 300 302 310 310 307
164 166 169 172 176 174 171 176 175 178 183 188 188 187 187 199 203 215 223 229 235 242 250 260 268 275 287 293 296 293 292 294 295 304 306 298 300 299 304 303 307 308 309
164 165 168 170 170 167 168 173 173 180 182 185 187 188 190 195 199 211 222 231 241 245 250 258 268 278 286 294 294 292 295 295 294 293 296 295 302 306 308 305 305 308 311
160 161 163 165 166 164 167 170 169 174 178 183 184 189 194 198 196 201 216 230 248 259 257 265 277 283 289 291 293 294 295 294 298 303 306 296 305 311 305 300 304 309 308
154 151 153 160 163 162 165 169 170 170 176 176 180 186 194 204 195 195 217 229 248 265 269 270 271 275 279 281 284 284 290 293 300 304 315 307 306 318 307 303 312 312 309